TimeMST,TemperatureF,Dew PointF,Humidity,Sea Level PressureIn,VisibilityMPH,Wind Direction,Wind SpeedMPH,Gust SpeedMPH,PrecipitationIn,Events,Conditions,WindDirDegrees,DateUTC
12:53 AM,12.9,9.0,84,29.99,10.0,NE,6.9,-,N/A,,Partly Cloudy,50,2012-12-28 07:53:00
1:53 AM,12.0,9.0,88,30.01,10.0,East,5.8,-,N/A,,Overcast,100,2012-12-28 08:53:00
2:53 AM,14.0,9.0,80,30.03,10.0,East,6.9,-,N/A,,Overcast,100,2012-12-28 09:53:00
3:53 AM,12.9,9.0,84,30.05,10.0,ENE,3.5,-,N/A,,Overcast,60,2012-12-28 10:53:00
4:53 AM,12.9,8.1,81,30.07,10.0,NE,4.6,-,N/A,,Overcast,50,2012-12-28 11:53:00
5:53 AM,14.0,10.0,84,30.10,10.0,ENE,6.9,-,0.00,,Overcast,60,2012-12-28 12:53:00
6:53 AM,12.0,7.0,80,30.13,10.0,ENE,4.6,-,N/A,,Overcast,60,2012-12-28 13:53:00
7:53 AM,6.1,1.9,83,30.18,10.0,ENE,10.4,-,N/A,,Clear,70,2012-12-28 14:53:00
8:53 AM,10.9,6.1,81,30.18,10.0,ENE,6.9,-,N/A,,Clear,70,2012-12-28 15:53:00
9:53 AM,19.0,10.0,68,30.17,10.0,East,3.5,-,N/A,,Clear,90,2012-12-28 16:53:00
10:53 AM,24.1,12.0,60,30.16,10.0,Calm,Calm,-,N/A,,Clear,0,2012-12-28 17:53:00
11:53 AM,28.0,10.0,47,30.14,10.0,North,-9999.0,-,N/A,,Clear,0,2012-12-28 18:53:00
12:53 PM,28.9,10.0,45,30.14,10.0,NW,12.7,18.4,N/A,,Clear,320,2012-12-28 19:53:00
1:53 PM,30.0,10.0,43,30.14,10.0,NW,9.2,-,N/A,,Clear,320,2012-12-28 20:53:00
2:53 PM,28.9,9.0,43,30.15,10.0,NW,10.4,17.3,N/A,,Clear,310,2012-12-28 21:53:00
3:53 PM,28.9,8.1,41,30.18,10.0,NW,10.4,-,N/A,,Clear,320,2012-12-28 22:53:00
4:53 PM,26.1,9.0,49,30.20,10.0,NW,6.9,-,N/A,,Clear,310,2012-12-28 23:53:00
5:53 PM,19.0,8.1,62,30.24,10.0,North,5.8,-,N/A,,Clear,10,2012-12-29 00:53:00
6:53 PM,15.1,6.1,68,30.30,10.0,ESE,3.5,-,N/A,,Clear,110,2012-12-29 01:53:00
7:53 PM,12.9,5.0,71,30.36,10.0,NE,8.1,-,N/A,,Clear,50,2012-12-29 02:53:00
8:53 PM,7.0,1.0,77,30.38,10.0,ENE,9.2,-,N/A,,Clear,70,2012-12-29 03:53:00
9:53 PM,3.0,-2.0,80,30.38,10.0,ENE,8.1,-,N/A,,Clear,70,2012-12-29 04:53:00
10:53 PM,3.9,-2.0,76,30.38,10.0,ENE,9.2,-,N/A,,Clear,70,2012-12-29 05:53:00
11:53 PM,1.9,-4.0,76,30.38,10.0,East,6.9,-,N/A,,Clear,80,2012-12-29 06:53:00